Location: Fleischmann Planetarium and Science Center
(39.5456°N, 119.8190°W)
Time: 23:27:13
(UTC-07:00)

Daily predictions for brighter satellites

Satellite Brightness Start Highest point End
(mag) Time Altitude Azimuth Time Altitude Azimuth Time Altitude Azimuth
Cosmos 2292 Rocket 3.1 19:18:34 10° SSW 19:22:01 70° W 19:25:00 10° N
Resurs 01 Rocket 3.4 19:19:49 10° E 19:22:01 14° ENE 19:24:13 10° NNE
SAR-Lupe-3 4.5 19:21:37 10° NNE 19:25:12 75° ESE 19:28:46 10° S
ALOS 2.3 19:21:02 10° SSE 19:25:39 65° ENE 19:30:17 10° N
ATLAS CENTAUR R/B 4.3 19:09:00 10° NW 19:25:51 52° NNE 19:31:29 10° ESE
ORS 1 (USA 231) 4.4 19:23:44 10° W 19:26:41 86° S 19:29:39 10° E
FREGAT/IRIS 3.3 19:24:54 10° SE 19:27:40 33° ENE 19:30:27 10° N
Cosmos 1898 Rocket 3.5 19:25:33 10° NNW 19:30:43 63° ENE 19:35:50 10° SSE
Cosmos 1943 Rocket 2.2 19:26:45 10° NNW 19:32:20 66° ENE 19:37:53 10° SSE
Cosmos 1814 Rocket 4.1 19:28:37 10° S 19:33:37 52° ESE 19:38:36 10° NNE
Cosmos 2084 3.9 19:30:59 10° S 19:34:44 34° ESE 19:38:20 10° NE
H-2A R/B 3.2 19:32:43 10° SE 19:36:10 38° ENE 19:39:40 10° N
Lacrosse 5 2.8 19:32:36 10° NW 19:37:29 50° SW 19:42:22 10° SSE
USA 81 4.3 19:35:20 10° N 19:40:28 48° E 19:45:33 10° SSE
Meteor 2-5 Rocket 4.0 19:35:17 10° N 19:40:57 48° ENE 19:46:29 10° SSE
Cosmos 2228 3.4 19:37:42 10° SSE 19:41:48 41° E 19:45:54 10° NNE
Cosmos 990 Rocket 4.1 19:38:07 10° N 19:43:10 51° ENE 19:48:10 10° SE
Cosmos 2058 Rocket 3.2 19:39:30 10° SSE 19:43:40 47° E 19:47:53 10° NNE
Cosmos 1606 Rocket 3.5 19:40:02 10° S 19:44:24 87° E 19:48:45 10° N
Cosmos 1953 Rocket 3.5 19:41:52 10° N 19:46:12 68° E 19:50:28 10° SSE
BREEZE-M DEB 3.6 19:35:46 10° WNW 19:46:19 78° NNE 19:49:07 14° ESE
Cosmos 389 Rocket 2.6 19:43:22 10° SSW 19:46:52 77° W 19:50:23 10° N
Cosmos 1766 4.4 19:44:18 10° SE 19:47:24 22° E 19:50:29 10° NE
Cosmos 2150 Rocket 4.1 19:44:03 10° NNW 19:49:20 60° ENE 19:54:39 10° SSE
BREEZE M DEB (TANK) 4.3 19:40:40 10° W 19:49:39 40° NNW 19:52:47 10° NE
Envisat 4.1 19:48:56 13° ESE 19:52:17 25° ENE 19:56:20 10° NNE
Geosat 4.3 19:48:34 10° SSE 19:53:33 69° WSW 19:58:35 10° NNW
Cosmos 1707 2.6 19:52:01 10° N 19:55:57 75° E 19:59:51 10° SSE
Cosmos 371 Rocket 4.2 19:52:22 10° SW 19:57:07 54° WNW 20:01:56 10° N
COSMOS 2406 3.8 19:54:36 10° SSE 19:59:40 34° ESE 20:04:47 10° NE
FengYun 1-2 T 4.2 19:55:58 10° SSE 20:01:35 84° ENE 20:07:11 10° NNW
TIMED 4.4 20:01:04 10° NNW 20:05:28 82° ENE 20:09:50 10° SSE
FENGYUN 3A 4.5 20:02:53 10° S 20:08:05 52° W 20:13:20 10° NNW
Cosmos 1340 Rocket 3.6 20:06:13 10° NNW 20:10:12 54° W 20:14:10 10° S
Cosmos 2369 Rocket 3.9 20:06:16 10° NW 20:11:17 34° WSW 20:16:15 10° SSW
Cosmos 1656 Rocket 3.7 20:07:08 10° NNW 20:12:44 61° ENE 20:16:56 17° SE
Milstar 3 Cent rocket 3.7 20:10:45 10° SSW 20:13:24 14° SSE 20:14:23 14° SSE
Cosmos 2298 Rocket 4.3 20:08:08 10° NNW 20:13:28 73° WSW 20:18:46 10° S
Cosmos 841 Rocket 3.3 20:09:38 10° SSW 20:14:47 81° ESE 20:19:56 10° NNE
Cosmos 1937 Rocket 3.8 20:11:19 10° NNW 20:16:37 69° WSW 20:21:49 10° S
HJ-1C 3.7 20:15:03 10° S 20:18:22 67° W 20:21:43 10° NNW
BREEZE-M DEB (TANK) 3.7 20:09:37 10° SW 20:23:24 74° SSE 20:26:09 25° ENE
Cosmos 1805 4.2 20:26:17 31° ENE 20:26:17 31° ENE 20:28:54 10° NNE
Cosmos 1356 Rocket 3.4 20:21:10 10° N 20:25:29 82° E 20:28:58 15° SSE
Cosmos 1378 4.2 20:22:08 10° NNW 20:25:47 48° W 20:29:24 10° SSW
CZ-2D R/B 3.1 20:27:36 21° SSE 20:30:05 90° WSW 20:33:55 10° NNW
USA 229 DEB 4.4 20:24:38 10° NW 20:31:37 55° WSW 20:38:44 10° SSE
USA 229 4.4 20:24:44 10° NW 20:31:43 56° WSW 20:38:49 10° SSE
In-Cosmos 22 4.2 20:27:34 10° N 20:33:14 69° E 20:37:25 19° SSE
Cosmos 1544 2.8 20:32:03 22° S 20:34:16 73° E 20:37:53 10° NNE
NOSS 3-1 (A) 4.1 20:28:42 10° NNW 20:36:20 68° NE 20:41:02 29° SE
Cosmos 1763 Rocket 4.5 20:31:54 10° SW 20:36:48 47° WNW 20:41:47 10° N
Centaur D AC-29 3.3 20:28:17 10° SW 20:36:59 22° S 20:38:54 18° SSE
SJ-6B 4.4 20:35:01 10° SSW 20:38:47 37° W 20:42:30 10° NNW
Cosmos 2154 Rocket 4.0 20:34:13 10° SSE 20:40:14 57° E 20:46:20 10° NNE
Resurs 1-3 3.5 20:39:14 31° SSE 20:41:19 87° ENE 20:45:44 10° NNW
Cosmos 540 Rocket 3.3 20:37:41 10° S 20:42:45 71° ESE 20:47:50 10° NNE
Cosmos 2074 Rocket 4.3 20:40:10 10° SSW 20:46:19 67° W 20:52:31 10° N
NOSS 3-1 (C) 4.1 20:38:54 10° NW 20:46:38 85° WSW 20:52:06 25° SSE
Cosmos 2341 Rocket 4.2 20:46:35 40° ESE 20:47:52 45° E 20:53:44 10° NNE
USA 186 4.1 20:54:24 14° NNW 20:54:24 14° NNW 20:54:53 10° NNW
Meteor 1-24 Rocket 4.2 20:48:24 10° NNW 20:54:20 65° W 21:00:04 10° S
Resurs 01 Rocket 2.2 20:55:40 26° S 20:58:00 56° W 21:02:22 10° NNW
Spot 2 Rocket 3.6 20:56:14 29° S 20:58:50 72° WSW 21:03:53 10° NNW
Cosmos 1066 4.5 20:57:37 10° N 21:03:06 74° E 21:03:48 65° SE
GEOS 3 Rocket 3.6 20:58:41 10° NE 21:04:07 87° SE 21:09:30 10° SW
GP-B 3.4 21:03:24 10° N 21:07:48 64° W 21:09:00 44° SW
SJ-11-01 4.2 21:11:06 79° N 21:11:06 79° N 21:15:32 10° NNW
Nadezhda 3 Rocket 3.9 21:08:25 10° N 21:14:46 86° W 21:16:51 45° S
FALCON 9 R/B 2.7 21:18:43 10° WSW 21:22:28 54° S 21:22:28 54° S
BREEZE-M (TANK) 4.4 21:14:48 10° WNW 21:23:00 32° WSW 21:23:47 30° SW
Cosmos 1125 Rocket 3.7 21:18:09 10° NNW 21:23:24 66° WSW 21:23:46 64° SW
Cosmos 1980 Rocket 4.4 21:21:39 10° NNE 21:22:52 12° NNE 21:22:52 12° NNE
Cosmos 1697 Rocket 4.5 21:20:22 10° N 21:23:01 19° NNE 21:23:01 19° NNE
ERS-1 Rocket 4.4 21:31:33 29° NNE 21:31:33 29° NNE 21:34:09 10° N
H-2A R/B 4.1 21:32:29 15° NNE 21:32:29 15° NNE 21:33:36 10° N
Envisat 4.2 21:29:09 28° SW 21:31:04 38° W 21:35:48 10° NNW
ATLAS 2AS CENTAUR R/B 3.4 22:10:44 10° NNW 22:17:09 54° N 22:17:09 54° N
